Wynyard / W.B. Needham Field

Jump to: basic info | weather | frequencies | runways | comments

Related pages: nearby airports | nearby navaids | notams | map

Basic information (top)

Codes: CYYO
Location: lon 51.809888, lat -104.169788, elev 1,740 ft / 530 m msl
Status: small_airport
Scheduled airline service: no
Links: Wikipedia Mobile

Weather (top)

Current conditions for Yorkton Municipal Airport 72nm (133km) ESE (rec'd 2014/10/31 19:00Z):

CYQV 311900Z AUTO 15014G24KT 9SM FEW120 01/M05 A3014 RMK PRESFR SLP237

Airport forecast for Yorkton Municipal Airport 72nm (133km) ESE (rec'd 2014/10/31 18:42Z):

TAF CYQV 311738Z 3118/0106 16018G28KT P6SM SKC 
     FM312000 16020G30KT P6SM BKN120 
     FM010200 16015KT P6SM SKC 
      RMK FCST BASED ON AUTO OBS. NXT FCST BY 010000Z

Frequencies (top)

Verify before use: may be inaccurate or out of date.

ATF: 123.2 MHz (ATF)

Runways (top)

09/27: 3,000 x 75 ft (914 x 23 m) — paved — lighted

Latest comments (top)

Wynyard Airport renamed W.B. Needham Field: The Wynyard Airport was renamed "W.B. ... [read]

More... (top)

See also NOTAMs and nearby airports and navaids, or visit the Wynyard / W.B. Needham Field page at the main OurAirports website..